Time,TemperatureF,DewpointF,PressureIn,WindDirection,WindDirectionDegrees,WindSpeedMPH,WindSpeedGustMPH,Humidity,HourlyPrecipIn,Conditions,Clouds,dailyrainin,SoftwareType,DateUTC
2013-04-14 00:00:00,37.2,29.7,30.02,West,266,3.0,3.0,74,0.00,,,0.07,Wunderground v.1.15,2013-04-14 04:00:00,
2013-04-14 00:03:00,37.2,29.7,30.02,WSW,242,3.0,3.0,74,0.00,,,0.00,Wunderground v.1.15,2013-04-14 04:03:00,
2013-04-14 00:08:00,37.0,29.8,30.02,South,174,2.0,3.0,75,0.00,,,0.00,Wunderground v.1.15,2013-04-14 04:08:00,
2013-04-14 00:13:00,36.9,29.4,30.02,SE,131,2.0,3.0,74,0.00,,,0.00,Wunderground v.1.15,2013-04-14 04:13:00,
2013-04-14 00:18:00,36.9,29.4,30.02,WSW,252,2.0,2.0,74,0.00,,,0.00,Wunderground v.1.15,2013-04-14 04:18:00,
2013-04-14 00:24:00,36.8,29.3,30.02,WSW,241,3.0,4.0,74,0.00,,,0.00,Wunderground v.1.15,2013-04-14 04:24:00,
2013-04-14 00:29:00,36.6,29.1,30.02,WSW,243,2.0,2.0,74,0.00,,,0.00,Wunderground v.1.15,2013-04-14 04:29:00,
2013-04-14 00:36:00,36.4,28.9,30.03,SW,233,1.0,2.0,74,0.00,,,0.00,Wunderground v.1.15,2013-04-14 04:36:00,
2013-04-14 00:42:00,36.2,29.4,30.02,WSW,245,1.0,1.0,76,0.00,,,0.00,Wunderground v.1.15,2013-04-14 04:42:00,
2013-04-14 00:48:00,36.2,29.0,30.02,WSW,240,1.0,5.0,75,0.00,,,0.00,Wunderground v.1.15,2013-04-14 04:48:00,
2013-04-14 00:53:00,36.0,28.8,30.02,SSE,153,1.0,2.0,75,0.00,,,0.00,Wunderground v.1.15,2013-04-14 04:53:00,
2013-04-14 00:58:00,35.9,29.1,30.02,SW,222,1.0,3.0,76,0.00,,,0.00,Wunderground v.1.15,2013-04-14 04:58:00,
2013-04-14 01:04:00,35.8,29.0,30.02,SW,231,1.0,5.0,76,0.00,,,0.00,Wunderground v.1.15,2013-04-14 05:04:00,
2013-04-14 01:09:00,35.7,28.9,30.02,SW,225,1.0,1.0,76,0.00,,,0.00,Wunderground v.1.15,2013-04-14 05:09:00,
2013-04-14 01:15:00,35.6,28.8,30.02,SSW,193,1.0,1.0,76,0.00,,,0.00,Wunderground v.1.15,2013-04-14 05:15:00,
2013-04-14 01:22:00,35.2,28.7,30.02,WSW,243,0.0,1.0,77,0.00,,,0.00,Wunderground v.1.15,2013-04-14 05:22:00,
2013-04-14 01:28:00,35.1,28.9,30.02,WNW,285,1.0,2.0,78,0.00,,,0.00,Wunderground v.1.15,2013-04-14 05:28:00,
2013-04-14 01:33:00,35.0,28.5,30.02,SW,230,1.0,1.0,77,0.00,,,0.00,Wunderground v.1.15,2013-04-14 05:33:00,
2013-04-14 01:38:00,34.9,28.7,30.02,SSW,198,1.0,1.0,78,0.00,,,0.00,Wunderground v.1.15,2013-04-14 05:38:00,
2013-04-14 01:44:00,34.9,28.7,30.02,SSE,165,1.0,2.0,78,0.00,,,0.00,Wunderground v.1.15,2013-04-14 05:44:00,
2013-04-14 01:50:00,34.8,28.6,30.02,SW,215,1.0,1.0,78,0.00,,,0.00,Wunderground v.1.15,2013-04-14 05:50:00,
2013-04-14 01:56:00,34.9,28.7,30.02,SW,226,1.0,2.0,78,0.00,,,0.00,Wunderground v.1.15,2013-04-14 05:56:00,
2013-04-14 02:02:00,35.1,28.9,30.02,South,191,1.0,1.0,78,0.00,,,0.00,Wunderground v.1.15,2013-04-14 06:02:00,
2013-04-14 02:08:00,34.9,28.7,30.02,South,177,1.0,2.0,78,0.00,,,0.00,Wunderground v.1.15,2013-04-14 06:08:00,
2013-04-14 02:13:00,34.8,28.6,30.02,South,176,1.0,2.0,78,0.00,,,0.00,Wunderground v.1.15,2013-04-14 06:13:00,
2013-04-14 02:18:00,34.8,28.6,30.02,South,174,1.0,1.0,78,0.00,,,0.00,Wunderground v.1.15,2013-04-14 06:18:00,
2013-04-14 02:25:00,34.8,28.6,30.03,SW,217,0.0,1.0,78,0.00,,,0.00,Wunderground v.1.15,2013-04-14 06:25:00,
2013-04-14 02:32:00,35.0,29.1,30.03,South,179,1.0,4.0,79,0.00,,,0.00,Wunderground v.1.15,2013-04-14 06:32:00,
2013-04-14 02:38:00,35.2,29.0,30.02,ESE,113,1.0,1.0,78,0.00,,,0.00,Wunderground v.1.15,2013-04-14 06:38:00,
2013-04-14 02:43:00,35.3,29.1,30.02,WSW,240,1.0,2.0,78,0.00,,,0.00,Wunderground v.1.15,2013-04-14 06:43:00,
2013-04-14 02:48:00,35.3,29.1,30.02,South,177,1.0,2.0,78,0.00,,,0.00,Wunderground v.1.15,2013-04-14 06:48:00,
2013-04-14 02:55:00,35.3,29.1,30.02,SE,134,0.0,2.0,78,0.00,,,0.00,Wunderground v.1.15,2013-04-14 06:55:00,
2013-04-14 03:01:00,35.1,28.9,30.02,SE,139,0.0,1.0,78,0.00,,,0.00,Wunderground v.1.15,2013-04-14 07:01:00,
2013-04-14 03:07:00,34.9,29.0,30.02,SE,139,0.0,1.0,79,0.00,,,0.00,Wunderground v.1.15,2013-04-14 07:07:00,
2013-04-14 03:13:00,34.7,28.9,30.02,SE,139,0.0,0.0,79,0.00,,,0.00,Wunderground v.1.15,2013-04-14 07:13:00,
2013-04-14 03:19:00,34.6,28.8,30.02,SE,145,0.0,1.0,79,0.00,,,0.00,Wunderground v.1.15,2013-04-14 07:19:00,
2013-04-14 03:24:00,34.5,29.0,30.02,SE,142,0.0,1.0,80,0.00,,,0.00,Wunderground v.1.15,2013-04-14 07:24:00,
2013-04-14 03:29:00,34.6,29.1,30.01,SE,143,0.0,0.0,80,0.00,,,0.00,Wunderground v.1.15,2013-04-14 07:29:00,
2013-04-14 03:36:00,34.5,29.0,30.01,SE,136,0.0,1.0,80,0.00,,,0.00,Wunderground v.1.15,2013-04-14 07:36:00,
2013-04-14 03:42:00,34.3,29.1,30.01,SE,137,0.0,0.0,81,0.00,,,0.00,Wunderground v.1.15,2013-04-14 07:42:00,
2013-04-14 03:47:00,33.6,28.7,30.01,SE,145,0.0,0.0,82,0.00,,,0.00,Wunderground v.1.15,2013-04-14 07:47:00,
2013-04-14 03:53:00,32.9,28.9,30.02,South,190,0.0,1.0,85,0.00,,,0.00,Wunderground v.1.15,2013-04-14 07:53:00,
2013-04-14 03:58:00,32.4,28.7,30.02,South,173,0.0,1.0,86,0.00,,,0.00,Wunderground v.1.15,2013-04-14 07:58:00,
2013-04-14 04:03:00,32.0,28.6,30.02,SSW,212,0.0,1.0,87,0.00,,,0.00,Wunderground v.1.15,2013-04-14 08:03:00,
2013-04-14 04:09:00,31.7,28.3,30.02,SSW,211,0.0,0.0,87,0.00,,,0.00,Wunderground v.1.15,2013-04-14 08:09:00,
2013-04-14 04:14:00,31.6,28.2,30.02,SSW,195,0.0,0.0,87,0.00,,,0.00,Wunderground v.1.15,2013-04-14 08:14:00,
2013-04-14 04:20:00,31.5,28.4,30.02,SSW,195,0.0,0.0,88,0.00,,,0.00,Wunderground v.1.15,2013-04-14 08:20:00,
2013-04-14 04:25:00,31.6,28.5,30.03,SSW,194,0.0,0.0,88,0.00,,,0.00,Wunderground v.1.15,2013-04-14 08:25:00,
2013-04-14 04:30:00,31.7,28.3,30.02,SSW,200,0.0,0.0,87,0.00,,,0.00,Wunderground v.1.15,2013-04-14 08:30:00,
2013-04-14 04:37:00,31.9,28.8,30.03,South,181,0.0,0.0,88,0.00,,,0.00,Wunderground v.1.15,2013-04-14 08:37:00,
2013-04-14 04:43:00,31.8,28.4,30.03,SSW,201,0.0,0.0,87,0.00,,,0.00,Wunderground v.1.15,2013-04-14 08:43:00,
2013-04-14 04:48:00,31.7,28.3,30.03,SSW,201,0.0,0.0,87,0.00,,,0.00,Wunderground v.1.15,2013-04-14 08:48:00,
2013-04-14 04:54:00,31.7,28.3,30.04,SSW,198,0.0,0.0,87,0.00,,,0.00,Wunderground v.1.15,2013-04-14 08:54:00,
2013-04-14 05:00:00,31.5,28.1,30.04,SSW,198,0.0,0.0,87,0.00,,,0.00,Wunderground v.1.15,2013-04-14 09:00:00,
2013-04-14 05:06:00,31.1,27.7,30.04,SSE,153,0.0,0.0,87,0.00,,,0.00,Wunderground v.1.15,2013-04-14 09:06:00,
2013-04-14 05:13:00,30.8,27.7,30.05,South,191,0.0,1.0,88,0.00,,,0.00,Wunderground v.1.15,2013-04-14 09:13:00,
2013-04-14 05:19:00,30.6,27.5,30.05,SE,129,0.0,0.0,88,0.00,,,0.00,Wunderground v.1.15,2013-04-14 09:19:00,
2013-04-14 05:25:00,30.6,27.5,30.05,SSE,156,0.0,1.0,88,0.00,,,0.00,Wunderground v.1.15,2013-04-14 09:25:00,
2013-04-14 05:30:00,30.5,27.4,30.05,SSE,159,0.0,1.0,88,0.00,,,0.00,Wunderground v.1.15,2013-04-14 09:30:00,
2013-04-14 05:36:00,30.5,27.6,30.05,SE,141,0.0,1.0,89,0.00,,,0.00,Wunderground v.1.15,2013-04-14 09:36:00,
2013-04-14 05:42:00,30.4,27.3,30.06,SE,142,0.0,0.0,88,0.00,,,0.00,Wunderground v.1.15,2013-04-14 09:42:00,
2013-04-14 05:48:00,30.2,27.3,30.06,SE,145,1.0,2.0,89,0.00,,,0.00,Wunderground v.1.15,2013-04-14 09:48:00,
2013-04-14 05:53:00,30.1,27.3,30.06,SE,146,1.0,1.0,89,0.00,,,0.00,Wunderground v.1.15,2013-04-14 09:53:00,
2013-04-14 05:59:00,30.0,27.2,30.06,ESE,115,1.0,2.0,89,0.00,,,0.00,Wunderground v.1.15,2013-04-14 09:59:00,
2013-04-14 06:04:00,30.2,27.6,30.06,ESE,120,1.0,2.0,90,0.00,,,0.00,Wunderground v.1.15,2013-04-14 10:04:00,
2013-04-14 06:09:00,30.6,28.0,30.06,ESE,103,1.0,2.0,90,0.00,,,0.00,Wunderground v.1.15,2013-04-14 10:09:00,
2013-04-14 06:15:00,30.8,27.9,30.07,ESE,123,1.0,2.0,89,0.00,,,0.00,Wunderground v.1.15,2013-04-14 10:15:00,
2013-04-14 06:21:00,30.6,27.7,30.07,ESE,123,1.0,4.0,89,0.00,,,0.00,Wunderground v.1.15,2013-04-14 10:21:00,
2013-04-14 06:28:00,30.3,27.4,30.08,SSE,160,1.0,4.0,89,0.00,,,0.00,Wunderground v.1.15,2013-04-14 10:28:00,
2013-04-14 06:33:00,30.4,27.8,30.08,ESE,117,1.0,1.0,90,0.00,,,0.00,Wunderground v.1.15,2013-04-14 10:33:00,
2013-04-14 06:38:00,30.6,28.0,30.08,SE,142,1.0,1.0,90,0.00,,,0.00,Wunderground v.1.15,2013-04-14 10:38:00,
2013-04-14 06:43:00,30.9,28.3,30.08,SE,135,1.0,1.0,90,0.00,,,0.00,Wunderground v.1.15,2013-04-14 10:43:00,
2013-04-14 06:49:00,31.2,28.6,30.08,SE,127,0.0,1.0,90,0.00,,,0.00,Wunderground v.1.15,2013-04-14 10:49:00,
2013-04-14 06:54:00,31.3,28.7,30.08,SE,125,0.0,1.0,90,0.00,,,0.00,Wunderground v.1.15,2013-04-14 10:54:00,
2013-04-14 06:59:00,31.3,28.4,30.08,SE,136,0.0,1.0,89,0.00,,,0.00,Wunderground v.1.15,2013-04-14 10:59:00,
2013-04-14 07:05:00,31.4,28.8,30.08,SSE,149,0.0,2.0,90,0.00,,,0.00,Wunderground v.1.15,2013-04-14 11:05:00,
2013-04-14 07:10:00,31.5,28.9,30.08,SE,134,0.0,1.0,90,0.00,,,0.00,Wunderground v.1.15,2013-04-14 11:10:00,
2013-04-14 07:16:00,31.9,29.3,30.08,ESE,122,1.0,2.0,90,0.00,,,0.00,Wunderground v.1.15,2013-04-14 11:16:00,
2013-04-14 07:22:00,32.3,29.4,30.08,SE,129,1.0,2.0,89,0.00,,,0.00,Wunderground v.1.15,2013-04-14 11:22:00,
2013-04-14 07:28:00,32.6,29.7,30.09,ESE,114,0.0,2.0,89,0.00,,,0.00,Wunderground v.1.15,2013-04-14 11:28:00,
2013-04-14 07:33:00,32.9,29.7,30.09,SSE,160,0.0,0.0,88,0.00,,,0.00,Wunderground v.1.15,2013-04-14 11:33:00,
2013-04-14 07:39:00,33.1,29.9,30.09,SE,129,0.0,0.0,88,0.00,,,0.00,Wunderground v.1.15,2013-04-14 11:39:00,
2013-04-14 07:44:00,33.3,30.1,30.09,SE,135,0.0,1.0,88,0.00,,,0.00,Wunderground v.1.15,2013-04-14 11:44:00,
2013-04-14 07:49:00,33.5,30.0,30.09,East,86,0.0,2.0,87,0.00,,,0.00,Wunderground v.1.15,2013-04-14 11:49:00,
2013-04-14 07:55:00,33.7,30.2,30.09,SE,126,1.0,2.0,87,0.00,,,0.00,Wunderground v.1.15,2013-04-14 11:55:00,
2013-04-14 08:00:00,34.0,30.5,30.09,SE,129,0.0,1.0,87,0.00,,,0.00,Wunderground v.1.15,2013-04-14 12:00:00,
2013-04-14 08:06:00,34.3,30.5,30.09,SSE,152,0.0,2.0,86,0.00,,,0.00,Wunderground v.1.15,2013-04-14 12:06:00,
2013-04-14 08:12:00,34.7,30.9,30.09,SE,145,0.0,3.0,86,0.00,,,0.00,Wunderground v.1.15,2013-04-14 12:12:00,
2013-04-14 08:18:00,35.7,31.9,30.09,SE,128,1.0,3.0,86,0.00,,,0.00,Wunderground v.1.15,2013-04-14 12:18:00,
2013-04-14 08:24:00,37.1,32.7,30.10,SSE,165,1.0,2.0,84,0.00,,,0.00,Wunderground v.1.15,2013-04-14 12:24:00,
2013-04-14 08:29:00,37.4,32.4,30.09,SE,142,1.0,1.0,82,0.00,,,0.00,Wunderground v.1.15,2013-04-14 12:29:00,
2013-04-14 08:35:00,37.8,32.5,30.10,WSW,248,1.0,1.0,81,0.00,,,0.00,Wunderground v.1.15,2013-04-14 12:35:00,
2013-04-14 08:40:00,38.3,33.0,30.09,SE,131,1.0,1.0,81,0.00,,,0.00,Wunderground v.1.15,2013-04-14 12:40:00,
2013-04-14 08:45:00,39.0,33.0,30.09,West,270,0.0,1.0,79,0.00,,,0.00,Wunderground v.1.15,2013-04-14 12:45:00,
2013-04-14 08:52:00,39.7,33.4,30.09,WSW,238,1.0,2.0,78,0.00,,,0.00,Wunderground v.1.15,2013-04-14 12:52:00,
2013-04-14 08:58:00,39.8,33.2,30.09,SSW,200,1.0,1.0,77,0.00,,,0.00,Wunderground v.1.15,2013-04-14 12:58:00,
2013-04-14 09:03:00,39.9,33.6,30.10,WSW,246,1.0,2.0,78,0.00,,,0.00,Wunderground v.1.15,2013-04-14 13:03:00,
2013-04-14 09:09:00,40.0,33.4,30.11,WSW,240,1.0,2.0,77,0.00,,,0.00,Wunderground v.1.15,2013-04-14 13:09:00,
2013-04-14 09:15:00,40.1,33.1,30.11,ESE,107,1.0,2.0,76,0.00,,,0.00,Wunderground v.1.15,2013-04-14 13:15:00,
2013-04-14 09:21:00,40.4,33.4,30.11,North,4,1.0,1.0,76,0.00,,,0.00,Wunderground v.1.15,2013-04-14 13:21:00,
2013-04-14 09:27:00,40.7,33.7,30.11,SSE,166,1.0,1.0,76,0.00,,,0.00,Wunderground v.1.15,2013-04-14 13:27:00,
2013-04-14 09:33:00,40.9,33.9,30.10,East,86,0.0,2.0,76,0.00,,,0.00,Wunderground v.1.15,2013-04-14 13:33:00,
2013-04-14 09:38:00,41.0,33.7,30.11,South,191,1.0,1.0,75,0.00,,,0.00,Wunderground v.1.15,2013-04-14 13:38:00,
2013-04-14 09:44:00,41.0,33.3,30.11,West,259,1.0,1.0,74,0.00,,,0.00,Wunderground v.1.15,2013-04-14 13:44:00,
2013-04-14 09:49:00,41.1,33.8,30.12,West,259,0.0,0.0,75,0.00,,,0.00,Wunderground v.1.15,2013-04-14 13:49:00,
2013-04-14 09:55:00,40.9,33.2,30.13,SSW,197,0.0,2.0,74,0.00,,,0.00,Wunderground v.1.15,2013-04-14 13:55:00,
2013-04-14 10:01:00,41.0,33.7,30.13,WSW,238,0.0,1.0,75,0.00,,,0.00,Wunderground v.1.15,2013-04-14 14:01:00,
2013-04-14 10:07:00,41.1,33.8,30.14,South,177,0.0,4.0,75,0.00,,,0.00,Wunderground v.1.15,2013-04-14 14:07:00,
2013-04-14 10:13:00,41.1,33.8,30.14,West,277,1.0,4.0,75,0.00,,,0.00,Wunderground v.1.15,2013-04-14 14:13:00,
2013-04-14 10:18:00,41.1,34.1,30.14,South,181,1.0,2.0,76,0.00,,,0.00,Wunderground v.1.15,2013-04-14 14:18:00,
2013-04-14 10:23:00,41.2,34.2,30.13,WSW,249,1.0,2.0,76,0.00,,,0.00,Wunderground v.1.15,2013-04-14 14:23:00,
2013-04-14 10:30:00,41.1,34.1,30.13,SSW,208,1.0,2.0,76,0.00,,,0.00,Wunderground v.1.15,2013-04-14 14:30:00,
2013-04-14 10:36:00,41.3,34.6,30.13,SE,134,1.0,2.0,77,0.00,,,0.00,Wunderground v.1.15,2013-04-14 14:36:00,
2013-04-14 10:42:00,41.6,34.6,30.13,SSW,200,0.0,2.0,76,0.00,,,0.00,Wunderground v.1.15,2013-04-14 14:42:00,
2013-04-14 10:47:00,41.9,34.6,30.13,SE,127,1.0,3.0,75,0.00,,,0.00,Wunderground v.1.15,2013-04-14 14:47:00,
2013-04-14 10:52:00,42.3,34.9,30.13,SSW,210,2.0,3.0,75,0.00,,,0.00,Wunderground v.1.15,2013-04-14 14:52:00,
2013-04-14 10:58:00,42.8,35.1,30.13,ESE,113,1.0,1.0,74,0.00,,,0.00,Wunderground v.1.15,2013-04-14 14:58:00,
2013-04-14 11:03:00,43.0,35.3,30.13,NNE,16,1.0,2.0,74,0.00,,,0.00,Wunderground v.1.15,2013-04-14 15:03:00,
2013-04-14 11:08:00,43.4,35.3,30.11,ESE,111,1.0,4.0,73,0.00,,,0.00,Wunderground v.1.15,2013-04-14 15:08:00,
2013-04-14 11:13:00,43.6,35.2,30.11,ESE,118,2.0,6.0,72,0.00,,,0.00,Wunderground v.1.15,2013-04-14 15:13:00,
2013-04-14 11:19:00,43.3,34.5,30.11,ENE,77,3.0,3.0,71,0.00,,,0.00,Wunderground v.1.15,2013-04-14 15:19:00,
2013-04-14 11:24:00,43.7,34.6,30.11,WNW,286,2.0,3.0,70,0.00,,,0.00,Wunderground v.1.15,2013-04-14 15:24:00,
2013-04-14 11:29:00,44.6,35.4,30.11,SW,224,1.0,1.0,70,0.00,,,0.00,Wunderground v.1.15,2013-04-14 15:29:00,
2013-04-14 11:35:00,45.2,34.9,30.11,SSW,208,1.0,3.0,67,0.00,,,0.00,Wunderground v.1.15,2013-04-14 15:35:00,
2013-04-14 11:41:00,45.5,34.8,30.11,South,177,2.0,2.0,66,0.00,,,0.00,Wunderground v.1.15,2013-04-14 15:41:00,
2013-04-14 11:48:00,45.5,34.4,30.11,WNW,282,2.0,4.0,65,0.00,,,0.00,Wunderground v.1.15,2013-04-14 15:48:00,
2013-04-14 11:53:00,46.0,34.9,30.11,SSW,198,2.0,4.0,65,0.00,,,0.00,Wunderground v.1.15,2013-04-14 15:53:00,
2013-04-14 11:59:00,46.5,35.0,30.11,SW,217,2.0,4.0,64,0.00,,,0.00,Wunderground v.1.15,2013-04-14 15:59:00,
2013-04-14 12:04:00,46.5,35.0,30.11,ESE,117,2.0,4.0,64,0.00,,,0.00,Wunderground v.1.15,2013-04-14 16:04:00,
2013-04-14 12:10:00,47.3,35.3,30.10,SW,217,2.0,4.0,63,0.00,,,0.00,Wunderground v.1.15,2013-04-14 16:10:00,
2013-04-14 12:15:00,46.7,35.2,30.11,WNW,284,3.0,5.0,64,0.00,,,0.00,Wunderground v.1.15,2013-04-14 16:15:00,
2013-04-14 12:20:00,47.2,35.6,30.10,SE,129,2.0,3.0,64,0.00,,,0.00,Wunderground v.1.15,2013-04-14 16:20:00,
2013-04-14 12:26:00,47.5,35.1,30.10,SSE,158,1.0,3.0,62,0.00,,,0.00,Wunderground v.1.15,2013-04-14 16:26:00,
2013-04-14 12:32:00,47.6,35.6,30.10,ESE,102,1.0,1.0,63,0.00,,,0.00,Wunderground v.1.15,2013-04-14 16:32:00,
2013-04-14 12:38:00,48.3,36.3,30.10,WSW,239,1.0,1.0,63,0.00,,,0.00,Wunderground v.1.15,2013-04-14 16:38:00,
2013-04-14 12:43:00,48.6,36.2,30.10,WSW,238,0.0,1.0,62,0.00,,,0.00,Wunderground v.1.15,2013-04-14 16:43:00,
2013-04-14 12:49:00,48.4,36.0,30.10,SW,236,0.0,1.0,62,0.00,,,0.00,Wunderground v.1.15,2013-04-14 16:49:00,
2013-04-14 12:54:00,48.9,36.0,30.10,SW,217,0.0,1.0,61,0.00,,,0.00,Wunderground v.1.15,2013-04-14 16:54:00,
2013-04-14 12:59:00,49.1,35.4,30.10,SSE,156,0.0,0.0,59,0.00,,,0.00,Wunderground v.1.15,2013-04-14 16:59:00,
2013-04-14 13:04:00,49.3,35.6,30.10,SSE,156,0.0,0.0,59,0.00,,,0.00,Wunderground v.1.15,2013-04-14 17:04:00,
2013-04-14 13:10:00,49.1,35.4,30.09,ESE,117,0.0,1.0,59,0.00,,,0.00,Wunderground v.1.15,2013-04-14 17:10:00,
2013-04-14 13:18:00,47.9,34.7,30.10,East,91,2.0,3.0,60,0.00,,,0.00,Wunderground v.1.15,2013-04-14 17:18:00,
2013-04-14 13:24:00,47.5,34.7,30.09,NE,56,1.0,2.0,61,0.00,,,0.00,Wunderground v.1.15,2013-04-14 17:24:00,
2013-04-14 13:29:00,47.7,35.7,30.09,South,173,1.0,2.0,63,0.00,,,0.00,Wunderground v.1.15,2013-04-14 17:29:00,
2013-04-14 13:35:00,48.4,35.1,30.09,ESE,117,1.0,4.0,60,0.00,,,0.00,Wunderground v.1.15,2013-04-14 17:35:00,
2013-04-14 13:40:00,48.8,35.5,30.09,SSE,155,2.0,2.0,60,0.00,,,0.00,Wunderground v.1.15,2013-04-14 17:40:00,
2013-04-14 13:46:00,48.4,35.1,30.09,SE,136,2.0,6.0,60,0.00,,,0.00,Wunderground v.1.15,2013-04-14 17:46:00,
2013-04-14 13:52:00,47.9,35.5,30.09,East,84,3.0,5.0,62,0.00,,,0.00,Wunderground v.1.15,2013-04-14 17:52:00,
2013-04-14 13:58:00,47.8,35.0,30.09,South,186,3.0,3.0,61,0.00,,,0.00,Wunderground v.1.15,2013-04-14 17:58:00,
2013-04-14 14:05:00,48.5,35.7,30.09,NW,321,3.0,4.0,61,0.00,,,0.00,Wunderground v.1.15,2013-04-14 18:05:00,
2013-04-14 14:10:00,49.5,35.8,30.09,South,191,2.0,2.0,59,0.00,,,0.00,Wunderground v.1.15,2013-04-14 18:10:00,
2013-04-14 14:18:00,50.9,36.6,30.09,East,98,2.0,6.0,58,0.00,,,0.00,Wunderground v.1.15,2013-04-14 18:18:00,
2013-04-14 14:23:00,51.4,35.8,30.08,WSW,249,3.0,5.0,55,0.00,,,0.00,Wunderground v.1.15,2013-04-14 18:23:00,
2013-04-14 14:28:00,51.5,36.8,30.08,SE,124,3.0,3.0,57,0.00,,,0.00,Wunderground v.1.15,2013-04-14 18:28:00,
2013-04-14 14:35:00,51.5,35.9,30.09,WNW,290,3.0,4.0,55,0.00,,,0.00,Wunderground v.1.15,2013-04-14 18:35:00,
2013-04-14 14:42:00,53.4,37.2,30.09,SSW,205,2.0,3.0,54,0.00,,,0.00,Wunderground v.1.15,2013-04-14 18:42:00,
2013-04-14 14:47:00,54.0,36.3,30.08,North,5,2.0,3.0,51,0.00,,,0.00,Wunderground v.1.15,2013-04-14 18:47:00,
2013-04-14 14:53:00,53.9,37.1,30.08,SSW,207,2.0,2.0,53,0.00,,,0.00,Wunderground v.1.15,2013-04-14 18:53:00,
2013-04-14 14:58:00,54.1,36.4,30.08,ESE,119,2.0,2.0,51,0.00,,,0.00,Wunderground v.1.15,2013-04-14 18:58:00,
2013-04-14 15:03:00,54.7,36.9,30.08,East,84,2.0,2.0,51,0.00,,,0.00,Wunderground v.1.15,2013-04-14 19:03:00,
2013-04-14 15:09:00,53.9,36.2,30.07,ENE,75,2.0,3.0,51,0.00,,,0.00,Wunderground v.1.15,2013-04-14 19:09:00,
2013-04-14 15:15:00,53.4,36.7,30.07,ENE,71,3.0,5.0,53,0.00,,,0.00,Wunderground v.1.15,2013-04-14 19:15:00,
2013-04-14 15:21:00,53.9,36.2,30.07,NNE,15,3.0,3.0,51,0.00,,,0.00,Wunderground v.1.15,2013-04-14 19:21:00,
2013-04-14 15:27:00,54.3,37.0,30.06,East,84,2.0,6.0,52,0.00,,,0.00,Wunderground v.1.15,2013-04-14 19:27:00,
2013-04-14 15:33:00,54.2,36.5,30.06,ESE,118,3.0,6.0,51,0.00,,,0.00,Wunderground v.1.15,2013-04-14 19:33:00,
2013-04-14 15:38:00,54.1,37.3,30.05,East,85,4.0,4.0,53,0.00,,,0.00,Wunderground v.1.15,2013-04-14 19:38:00,
2013-04-14 15:43:00,55.1,37.3,30.05,North,6,3.0,5.0,51,0.00,,,0.00,Wunderground v.1.15,2013-04-14 19:43:00,
2013-04-14 15:49:00,54.7,36.9,30.05,NNE,13,4.0,5.0,51,0.00,,,0.00,Wunderground v.1.15,2013-04-14 19:49:00,
2013-04-14 15:54:00,54.8,36.5,30.05,SE,132,3.0,5.0,50,0.00,,,0.00,Wunderground v.1.15,2013-04-14 19:54:00,
2013-04-14 16:01:00,54.9,37.1,30.04,East,91,2.0,5.0,51,0.00,,,0.00,Wunderground v.1.15,2013-04-14 20:01:00,
2013-04-14 16:06:00,54.8,36.5,30.03,East,101,3.0,5.0,50,0.00,,,0.00,Wunderground v.1.15,2013-04-14 20:06:00,
2013-04-14 16:13:00,55.5,37.7,30.03,SSE,153,2.0,3.0,51,0.00,,,0.00,Wunderground v.1.15,2013-04-14 20:13:00,
2013-04-14 16:19:00,55.4,37.6,30.03,East,82,3.0,3.0,51,0.00,,,0.00,Wunderground v.1.15,2013-04-14 20:19:00,
2013-04-14 16:24:00,55.8,36.9,30.04,SE,131,3.0,3.0,49,0.00,,,0.00,Wunderground v.1.15,2013-04-14 20:24:00,
2013-04-14 16:30:00,55.4,36.5,30.03,ESE,121,4.0,7.0,49,0.00,,,0.00,Wunderground v.1.15,2013-04-14 20:30:00,
2013-04-14 16:35:00,55.3,37.0,30.03,SE,138,4.0,7.0,50,0.00,,,0.00,Wunderground v.1.15,2013-04-14 20:35:00,
2013-04-14 16:41:00,55.7,37.8,30.02,East,81,3.0,3.0,51,0.00,,,0.00,Wunderground v.1.15,2013-04-14 20:41:00,
2013-04-14 16:47:00,55.5,37.7,30.02,ESE,117,4.0,8.0,51,0.00,,,0.00,Wunderground v.1.15,2013-04-14 20:47:00,
2013-04-14 16:54:00,55.6,37.2,30.03,ENE,69,4.0,6.0,50,0.00,,,0.00,Wunderground v.1.15,2013-04-14 20:54:00,
2013-04-14 16:59:00,55.6,37.2,30.03,SE,134,5.0,5.0,50,0.00,,,0.00,Wunderground v.1.15,2013-04-14 20:59:00,
2013-04-14 17:04:00,55.7,38.3,30.02,East,81,4.0,5.0,52,0.00,,,0.00,Wunderground v.1.15,2013-04-14 21:04:00,
2013-04-14 17:10:00,56.0,38.1,30.02,SW,215,3.0,3.0,51,0.00,,,0.00,Wunderground v.1.15,2013-04-14 21:10:00,
2013-04-14 17:16:00,56.6,38.2,30.02,SE,124,3.0,6.0,50,0.00,,,0.00,Wunderground v.1.15,2013-04-14 21:16:00,
2013-04-14 17:22:00,56.6,38.2,30.02,SE,135,3.0,7.0,50,0.00,,,0.00,Wunderground v.1.15,2013-04-14 21:22:00,
2013-04-14 17:28:00,56.7,37.7,30.02,ESE,117,4.0,8.0,49,0.00,,,0.00,Wunderground v.1.15,2013-04-14 21:28:00,
2013-04-14 17:33:00,56.4,38.5,30.02,SSE,158,5.0,8.0,51,0.00,,,0.00,Wunderground v.1.15,2013-04-14 21:33:00,
2013-04-14 17:39:00,57.0,37.5,30.02,ESE,120,3.0,8.0,48,0.00,,,0.00,Wunderground v.1.15,2013-04-14 21:39:00,
2013-04-14 17:45:00,56.7,37.7,30.02,SE,146,3.0,8.0,49,0.00,,,0.00,Wunderground v.1.15,2013-04-14 21:45:00,
2013-04-14 17:50:00,56.7,38.3,30.03,East,88,3.0,8.0,50,0.00,,,0.00,Wunderground v.1.15,2013-04-14 21:50:00,
2013-04-14 17:55:00,56.3,37.4,30.03,East,100,5.0,8.0,49,0.00,,,0.00,Wunderground v.1.15,2013-04-14 21:55:00,
2013-04-14 18:02:00,56.4,37.5,30.03,SE,143,5.0,11.0,49,0.00,,,0.00,Wunderground v.1.15,2013-04-14 22:02:00,
2013-04-14 18:08:00,56.7,37.7,30.02,SE,131,4.0,4.0,49,0.00,,,0.00,Wunderground v.1.15,2013-04-14 22:08:00,
2013-04-14 18:13:00,56.7,37.7,30.02,West,262,3.0,5.0,49,0.00,,,0.00,Wunderground v.1.15,2013-04-14 22:13:00,
2013-04-14 18:19:00,56.4,38.0,30.02,ENE,77,4.0,4.0,50,0.00,,,0.00,Wunderground v.1.15,2013-04-14 22:19:00,
2013-04-14 18:24:00,56.3,38.4,30.02,ESE,104,5.0,10.0,51,0.00,,,0.00,Wunderground v.1.15,2013-04-14 22:24:00,
2013-04-14 18:30:00,56.3,38.4,30.02,ESE,102,4.0,6.0,51,0.00,,,0.00,Wunderground v.1.15,2013-04-14 22:30:00,
2013-04-14 18:35:00,56.2,38.3,30.02,SE,143,3.0,6.0,51,0.00,,,0.00,Wunderground v.1.15,2013-04-14 22:35:00,
2013-04-14 18:41:00,56.2,38.3,30.01,WNW,285,3.0,3.0,51,0.00,,,0.00,Wunderground v.1.15,2013-04-14 22:41:00,
2013-04-14 18:48:00,55.9,38.5,30.01,SE,124,3.0,3.0,52,0.00,,,0.00,Wunderground v.1.15,2013-04-14 22:48:00,
2013-04-14 18:53:00,55.8,37.9,30.01,ESE,103,4.0,9.0,51,0.00,,,0.00,Wunderground v.1.15,2013-04-14 22:53:00,
2013-04-14 18:58:00,55.7,38.3,30.01,ENE,68,3.0,3.0,52,0.00,,,0.00,Wunderground v.1.15,2013-04-14 22:58:00,
2013-04-14 19:04:00,55.5,38.6,30.01,East,97,2.0,4.0,53,0.00,,,0.00,Wunderground v.1.15,2013-04-14 23:04:00,
2013-04-14 19:09:00,55.3,38.9,30.01,SE,131,2.0,2.0,54,0.00,,,0.00,Wunderground v.1.15,2013-04-14 23:09:00,
2013-04-14 19:14:00,55.2,38.8,30.01,ESE,106,2.0,3.0,54,0.00,,,0.00,Wunderground v.1.15,2013-04-14 23:14:00,
2013-04-14 19:20:00,55.2,38.4,30.01,SE,124,3.0,5.0,53,0.00,,,0.00,Wunderground v.1.15,2013-04-14 23:20:00,
2013-04-14 19:25:00,55.1,38.3,30.01,ESE,114,3.0,7.0,53,0.00,,,0.00,Wunderground v.1.15,2013-04-14 23:25:00,
2013-04-14 19:32:00,55.0,38.2,30.01,East,98,3.0,3.0,53,0.00,,,0.00,Wunderground v.1.15,2013-04-14 23:32:00,
2013-04-14 19:37:00,54.7,38.4,30.00,ESE,109,2.0,5.0,54,0.00,,,0.00,Wunderground v.1.15,2013-04-14 23:37:00,
2013-04-14 19:43:00,54.6,38.3,30.00,East,84,3.0,6.0,54,0.00,,,0.00,Wunderground v.1.15,2013-04-14 23:43:00,
2013-04-14 19:49:00,54.4,38.1,30.00,ENE,69,3.0,4.0,54,0.00,,,0.00,Wunderground v.1.15,2013-04-14 23:49:00,
2013-04-14 19:55:00,54.2,38.4,30.00,ESE,108,3.0,4.0,55,0.00,,,0.00,Wunderground v.1.15,2013-04-14 23:55:00,
2013-04-14 20:00:00,53.9,38.1,30.00,ESE,121,3.0,9.0,55,0.00,,,0.00,Wunderground v.1.15,2013-04-15 00:00:00,
2013-04-14 20:05:00,53.8,38.0,30.00,East,93,3.0,9.0,55,0.00,,,0.00,Wunderground v.1.15,2013-04-15 00:05:00,
2013-04-14 20:11:00,53.6,37.8,30.00,ENE,74,3.0,5.0,55,0.00,,,0.00,Wunderground v.1.15,2013-04-15 00:11:00,
2013-04-14 20:16:00,53.4,37.6,30.00,ESE,107,3.0,7.0,55,0.00,,,0.00,Wunderground v.1.15,2013-04-15 00:16:00,
2013-04-14 20:22:00,53.1,37.8,30.00,ESE,117,3.0,5.0,56,0.00,,,0.00,Wunderground v.1.15,2013-04-15 00:22:00,
2013-04-14 20:27:00,52.8,37.5,30.01,East,100,3.0,6.0,56,0.00,,,0.00,Wunderground v.1.15,2013-04-15 00:27:00,
2013-04-14 20:34:00,52.5,37.2,30.01,East,81,3.0,8.0,56,0.00,,,0.00,Wunderground v.1.15,2013-04-15 00:34:00,
2013-04-14 20:40:00,52.3,37.5,30.01,SE,129,3.0,4.0,57,0.00,,,0.00,Wunderground v.1.15,2013-04-15 00:40:00,
2013-04-14 20:46:00,52.2,37.4,30.02,ESE,103,4.0,6.0,57,0.00,,,0.00,Wunderground v.1.15,2013-04-15 00:46:00,
2013-04-14 20:51:00,52.0,37.7,30.02,ESE,121,4.0,6.0,58,0.00,,,0.00,Wunderground v.1.15,2013-04-15 00:51:00,
2013-04-14 20:58:00,51.7,37.4,30.02,SE,125,3.0,3.0,58,0.00,,,0.00,Wunderground v.1.15,2013-04-15 00:58:00,
2013-04-14 21:03:00,51.6,37.3,30.01,East,101,4.0,5.0,58,0.00,,,0.00,Wunderground v.1.15,2013-04-15 01:03:00,
2013-04-14 21:08:00,51.5,37.2,30.01,West,277,4.0,4.0,58,0.00,,,0.00,Wunderground v.1.15,2013-04-15 01:08:00,
2013-04-14 21:13:00,51.4,37.5,30.01,ESE,105,4.0,5.0,59,0.00,,,0.00,Wunderground v.1.15,2013-04-15 01:13:00,
2013-04-14 21:19:00,51.3,37.4,30.01,ESE,117,4.0,7.0,59,0.00,,,0.00,Wunderground v.1.15,2013-04-15 01:19:00,
2013-04-14 21:24:00,51.2,37.4,30.01,East,84,5.0,9.0,59,0.00,,,0.00,Wunderground v.1.15,2013-04-15 01:24:00,
2013-04-14 21:29:00,51.1,37.3,30.01,SE,124,4.0,6.0,59,0.00,,,0.00,Wunderground v.1.15,2013-04-15 01:29:00,
2013-04-14 21:34:00,51.1,37.3,30.01,SE,133,4.0,6.0,59,0.00,,,0.00,Wunderground v.1.15,2013-04-15 01:34:00,
2013-04-14 21:40:00,51.2,37.4,30.00,ESE,110,4.0,4.0,59,0.00,,,0.00,Wunderground v.1.15,2013-04-15 01:40:00,
2013-04-14 21:47:00,51.2,37.4,30.00,SE,134,4.0,5.0,59,0.00,,,0.00,Wunderground v.1.15,2013-04-15 01:47:00,
2013-04-14 21:52:00,51.1,37.3,30.00,East,89,4.0,8.0,59,0.00,,,0.00,Wunderground v.1.15,2013-04-15 01:52:00,
2013-04-14 21:58:00,51.1,37.3,30.00,East,80,4.0,4.0,59,0.00,,,0.00,Wunderground v.1.15,2013-04-15 01:58:00,
2013-04-14 22:04:00,51.0,37.2,30.00,ESE,103,3.0,5.0,59,0.00,,,0.00,Wunderground v.1.15,2013-04-15 02:04:00,
2013-04-14 22:09:00,51.1,37.3,29.99,NE,53,5.0,10.0,59,0.00,,,0.00,Wunderground v.1.15,2013-04-15 02:09:00,
2013-04-14 22:17:00,51.1,37.3,29.99,East,82,5.0,6.0,59,0.00,,,0.00,Wunderground v.1.15,2013-04-15 02:17:00,
2013-04-14 22:23:00,51.1,37.3,29.99,ESE,119,6.0,11.0,59,0.00,,,0.00,Wunderground v.1.15,2013-04-15 02:23:00,
2013-04-14 22:28:00,51.1,37.3,29.99,ESE,113,6.0,9.0,59,0.00,,,0.00,Wunderground v.1.15,2013-04-15 02:28:00,
2013-04-14 22:33:00,51.1,37.3,29.98,ESE,104,6.0,10.0,59,0.00,,,0.00,Wunderground v.1.15,2013-04-15 02:33:00,
2013-04-14 22:39:00,51.0,37.2,29.98,East,91,5.0,8.0,59,0.00,,,0.00,Wunderground v.1.15,2013-04-15 02:39:00,
2013-04-14 22:44:00,51.0,37.2,29.98,SE,127,5.0,8.0,59,0.00,,,0.00,Wunderground v.1.15,2013-04-15 02:44:00,
2013-04-14 22:51:00,51.0,37.2,29.97,SSW,203,5.0,5.0,59,0.00,,,0.00,Wunderground v.1.15,2013-04-15 02:51:00,
2013-04-14 22:57:00,51.1,36.8,29.97,WNW,284,4.0,4.0,58,0.00,,,0.00,Wunderground v.1.15,2013-04-15 02:57:00,
2013-04-14 23:03:00,51.3,37.0,29.97,East,79,4.0,9.0,58,0.00,,,0.00,Wunderground v.1.15,2013-04-15 03:03:00,
2013-04-14 23:08:00,51.4,37.1,29.96,NE,43,4.0,4.0,58,0.00,,,0.00,Wunderground v.1.15,2013-04-15 03:08:00,
2013-04-14 23:15:00,51.6,37.3,29.97,SE,126,4.0,7.0,58,0.00,,,0.00,Wunderground v.1.15,2013-04-15 03:15:00,
2013-04-14 23:21:00,51.6,36.9,29.96,ESE,114,5.0,10.0,57,0.00,,,0.00,Wunderground v.1.15,2013-04-15 03:21:00,
2013-04-14 23:26:00,51.7,36.9,29.96,East,84,5.0,10.0,57,0.00,,,0.00,Wunderground v.1.15,2013-04-15 03:26:00,
2013-04-14 23:31:00,51.7,36.9,29.96,South,176,4.0,10.0,57,0.00,,,0.00,Wunderground v.1.15,2013-04-15 03:31:00,
2013-04-14 23:36:00,51.6,37.3,29.96,SSE,148,4.0,10.0,58,0.00,,,0.00,Wunderground v.1.15,2013-04-15 03:36:00,
2013-04-14 23:42:00,51.6,37.3,29.95,ESE,115,3.0,7.0,58,0.00,,,0.00,Wunderground v.1.15,2013-04-15 03:42:00,
2013-04-14 23:48:00,51.4,37.1,29.97,SSE,167,3.0,4.0,58,0.00,,,0.00,Wunderground v.1.15,2013-04-15 03:48:00,
2013-04-14 23:53:00,51.3,37.0,29.97,East,85,3.0,4.0,58,0.00,,,0.00,Wunderground v.1.15,2013-04-15 03:53:00,
2013-04-14 23:58:00,51.2,37.4,29.97,NW,309,3.0,3.0,59,0.00,,,0.00,Wunderground v.1.15,2013-04-15 03:58:00,